Voltar ao catálogo

IRIDIUM 145

AtivoComunicaçõesPO
NORAD 43253·PAYLOAD·🇺🇸 United States

Lançado Mar 30, 2018 de Vandenberg Space Force Base

Loading…

Próximas Passagens (próximas 24 horas)

TLE

AtualizadoSource: CelesTrak SupGP

Época: Sep 14, 2026, 21:49 UTC

1 43253C 18030E   26257.90937500  .00002972  00000+0  10627-2 0  2578
2 43253  86.3913 252.8735 0002059  86.3831 245.4932 14.34215707    10

Acompanhe IRIDIUM 145 em tempo real com AllMySat

Download on the App Store